Location: White Mills Observatory
(37.5374°N, 86.0303°W)
Time: 16:28:34
(UTC-04:00)

Amateur Radio Satellites - All Passes

Search period start: 24 July 2016 15:58
Search period end: 25 July 2016 15:58
Location: White Mills Observatory, 37.5374°N, 86.0303°W

Satellite Date Start Highest point End Downlink Frequencies (MHz)
Time Altitude Azimuth
BEESAT 24 Jul 16:08:35 16:13:22 77° 103° (ESE) 16:18:06 436.000
ITAMSAT 1 24 Jul 16:08:35 16:13:46 65° 258° (WSW) 16:18:59 435.822/435.867
RS-15 24 Jul 16:09:32 16:20:55 40° 43° (NE) 16:32:08 29.354- 29.394
Cosmos 2499 24 Jul 16:11:10 16:18:48 34° 85° (E) 16:26:22 435.465 / 435.565
DANDE 24 Jul 16:19:09 16:20:50 15° 76° (ENE) 16:22:34 436.750
CUSAT 1 24 Jul 16:24:38 16:27:30 68° 263° (W) 16:31:03 437.405
ITUPSAT 1 24 Jul 16:29:38 16:34:23 66° 286° (WNW) 16:39:05 437.325
AO-7 24 Jul 16:58:35 17:06:52 66° 256° (WSW) 17:15:13 29.400- 29.500
KKS-1 24 Jul 17:05:21 17:09:25 33° 98° (E) 17:13:28 437.445
GONETS M04 24 Jul 17:12:43 17:21:23 76° 278° (W) 17:30:08
MOZHAYETS 4 24 Jul 17:17:04 17:21:31 49° 99° (E) 17:25:55
HORYU 2 24 Jul 17:25:26 17:29:37 40° 72° (ENE) 17:33:49 437.375
SWISSCUBE 24 Jul 17:26:00 17:28:55 16° 295° (WNW) 17:31:49 437.505
AO-85 24 Jul 17:29:32 17:32:01 13° 318° (NW) 17:34:28 145.980
NOAA 18 24 Jul 17:39:11 17:40:49 11° 58° (ENE) 17:42:27 137.9125
BEESAT 24 Jul 17:49:14 17:50:28 11° 298° (WNW) 17:51:42 436.000
STARS 24 Jul 17:52:15 17:56:38 54° 101° (E) 18:00:58 437.465
NOAA 15 24 Jul 17:56:40 18:00:29 21° 65° (ENE) 18:04:17 137.62
Cosmos 2499 24 Jul 18:03:00 18:11:33 51° 282° (WNW) 18:20:03 435.465 / 435.565
BRITE-PL 24 Jul 18:19:00 18:22:41 30° 71° (ENE) 18:26:19 437.365/2234.400
RS-15 24 Jul 18:22:03 18:34:16 68° 246° (WSW) 18:46:13 29.354- 29.394
CUBESAT XI-V 24 Jul 18:28:18 18:32:27 33° 97° (E) 18:36:35 437.345
PHONESAT 2.4 24 Jul 18:37:23 18:39:59 25° 150° (SSE) 18:42:37 2401.200-2431.200
Cubesat XI-IV 24 Jul 18:40:13 18:45:11 39° 70° (ENE) 18:50:09 437.490
KKS-1 24 Jul 18:42:24 18:45:45 21° 293° (WNW) 18:49:06 437.445
SO-50 24 Jul 18:45:07 18:49:42 59° 57° (ENE) 18:54:07 436.795
MOZHAYETS 4 24 Jul 18:55:38 18:58:14 15° 295° (WNW) 19:00:50
LilacSat-2 24 Jul 19:03:06 19:06:53 58° 75° (ENE) 19:10:43 437.200
HORYU 2 24 Jul 19:03:24 19:06:18 17° 266° (W) 19:09:13 437.375
CUTE-I 24 Jul 19:04:26 19:09:45 67° 74° (ENE) 19:15:06 437.470
NOAA 18 24 Jul 19:15:04 19:20:35 86° 76° (ENE) 19:26:10 137.9125
GONETS M04 24 Jul 19:15:52 19:19:46 13° 299° (WNW) 19:23:41
STARS 24 Jul 19:30:23 19:32:29 13° 296° (WNW) 19:34:36 437.465
NOAA 15 24 Jul 19:34:53 19:39:54 46° 260° (W) 19:44:56 137.62
GOMX 1 24 Jul 19:35:58 19:40:06 79° 259° (W) 19:44:21 467.674
BEESAT 3 24 Jul 19:36:55 19:40:19 29° 113° (ESE) 19:43:46 437.485
BEESAT 2 24 Jul 19:38:12 19:40:35 16° 110° (ESE) 19:42:59 435.950
DOVE 4 24 Jul 19:43:52 19:47:57 51° 74° (ENE) 19:52:13 437.250
HO-68 24 Jul 19:45:53 19:51:47 29° 62° (ENE) 19:57:41 435.675
BRITE-PL 24 Jul 19:58:25 20:01:15 18° 266° (W) 20:04:05 437.365/2234.400
CUBESAT XI-V 24 Jul 20:06:07 20:09:37 22° 292° (WNW) 20:13:08 437.345
SEEDS 24 Jul 20:12:29 20:15:10 16° 67° (ENE) 20:17:49 437.485
PHONESAT 2.4 24 Jul 20:13:15 20:16:20 72° 345° (NNW) 20:19:25 2401.200-2431.200
CINEMA 3 24 Jul 20:17:01 20:20:59 33° 71° (ENE) 20:25:09 145.822/145.860
Cubesat XI-IV 24 Jul 20:21:02 20:25:19 24° 265° (W) 20:29:37 437.490
STRAND 1 24 Jul 20:23:17 20:27:49 31° 97° (E) 20:32:19 437.568
SO-50 24 Jul 20:27:34 20:29:35 13° 253° (WSW) 20:31:35 436.795
COMPASS 1 24 Jul 20:29:38 20:32:26 18° 68° (ENE) 20:35:14 437.405
RS-15 24 Jul 20:39:39 20:44:17 13° 265° (W) 20:48:54 29.354- 29.394
PCSat 24 Jul 20:41:41 20:46:59 59° 114° (ESE) 20:52:20 145.827
CUTE-I 24 Jul 20:47:38 20:50:14 14° 269° (W) 20:52:50 437.470
CANX-2 24 Jul 20:47:39 20:51:54 70° 76° (ENE) 20:56:10 2200.000
AAUSAT CUBESAT 2 24 Jul 20:59:55 21:03:34 30° 71° (ENE) 21:07:13 437.432
NOAA 18 24 Jul 21:00:59 21:01:52 10° 270° (W) 21:02:46 137.9125
CUTE 1.7 + AOD 2 24 Jul 21:01:38 21:05:55 88° 87° (E) 21:10:13 437.475
O/OREOS (USA 219) 24 Jul 21:06:12 21:08:46 15° 99° (E) 21:11:21 437.305
BEESAT 2 24 Jul 21:14:23 21:18:05 38° 305° (NW) 21:21:49 435.950
BEESAT 3 24 Jul 21:14:57 21:18:01 21° 310° (NW) 21:21:06 437.485
YUBILEINY 24 Jul 21:22:07 21:30:02 35° 73° (ENE) 21:37:51 435.215
DOVE 4 24 Jul 21:24:44 21:26:03 11° 270° (W) 21:27:23 437.250
UWE-3 24 Jul 21:27:24 21:31:36 39° 72° (ENE) 21:35:55 435.000/436.395/437.385
HO-68 24 Jul 21:32:07 21:39:05 53° 259° (W) 21:46:06 435.675
ZACube-1 24 Jul 21:34:51 21:38:48 31° 70° (ENE) 21:42:49 437.345
FUNcube-1 24 Jul 21:35:37 21:39:30 29° 70° (ENE) 21:43:27 145.935
AUBIESAT-1 24 Jul 21:42:44 21:44:56 15° 60° (ENE) 21:47:13 437.475
CUBEBUG 2 24 Jul 21:43:01 21:47:32 88° 69° (ENE) 21:52:13 437.445
SEEDS 24 Jul 21:46:35 21:50:32 38° 262° (W) 21:54:29 437.485
DELFI C3 24 Jul 21:47:56 21:50:32 17° 68° (ENE) 21:53:08 145.870
PHONESAT 2.4 24 Jul 21:50:04 21:53:03 45° 2° (N) 21:56:02 2401.200-2431.200
CINEMA 3 24 Jul 21:54:57 21:58:12 20° 267° (W) 22:01:35 145.822/145.860
STRAND 1 24 Jul 22:02:34 22:06:52 28° 292° (WNW) 22:11:08 437.568
COMPASS 1 24 Jul 22:03:53 22:07:43 34° 263° (W) 22:11:33 437.405
Oscar 11 24 Jul 22:21:41 22:26:01 75° 257° (WSW) 22:30:24 145.826/435.025
PCSat 24 Jul 22:26:51 22:30:47 20° 311° (NW) 22:34:44 145.827
AAUSAT CUBESAT 2 24 Jul 22:36:04 22:39:03 19° 266° (W) 22:42:03 437.432
PRISM 24 Jul 22:40:13 22:44:16 64° 285° (WNW) 22:48:18 437.425
Cosmos 2491 24 Jul 22:40:41 22:49:11 60° 91° (E) 22:57:41 435.465 / 435.565
O/OREOS (USA 219) 24 Jul 22:43:31 22:47:45 43° 295° (WNW) 22:52:02 437.305
M-CUBED/EXP-1 PRIME 24 Jul 22:46:45 22:50:21 70° 255° (WSW) 22:54:16 437.505
AIST 2 24 Jul 22:50:40 22:54:45 82° 301° (WNW) 22:58:54 435.215
UNISAT 6 24 Jul 22:56:56 22:59:25 14° 91° (E) 23:01:53 437.425
Cosmos 2504 24 Jul 22:57:21 23:05:09 45° 76° (ENE) 23:12:21 435.465 / 435.565
UWE-3 24 Jul 23:05:08 23:08:12 18° 268° (W) 23:11:19 435.000/436.395/437.385
ESTCUBE 1 24 Jul 23:08:13 23:10:04 12° 64° (ENE) 23:11:57 437.505/2401.250
ZACube-1 24 Jul 23:11:32 23:15:04 22° 266° (W) 23:18:39 437.345
FUNcube-1 24 Jul 23:12:06 23:15:42 24° 266° (W) 23:19:22 145.935
ISS 24 Jul 23:13:35 23:16:50 85° 323° (NW) 23:20:06 145.825
HUMSAT D 24 Jul 23:13:40 23:17:58 85° 79° (E) 23:22:19 437.325/437.525
AUBIESAT-1 24 Jul 23:15:37 23:19:01 37° 258° (WSW) 23:22:42 437.475
YUBILEINY 24 Jul 23:18:39 23:26:58 48° 271° (W) 23:35:14 435.215
DELFI C3 24 Jul 23:21:32 23:25:07 32° 262° (W) 23:28:43 145.870
PHONESAT 2.4 24 Jul 23:26:38 23:29:43 86° 196° (SSW) 23:32:47 2401.200-2431.200
ANTELSAT 24 Jul 23:34:03 23:38:22 37° 97° (E) 23:42:34 437.575/2403.000
VELOX 1 24 Jul 23:36:14 23:38:33 14° 65° (ENE) 23:40:53 145.980
CUBEBUG 1 24 Jul 23:43:57 23:47:01 19° 67° (ENE) 23:50:05 437.445
50 SAT 24 Jul 23:55:27 23:58:12 20° 70° (ENE) 00:00:57 437.505
TIGRISAT 25 Jul 00:16:20 00:21:00 79° 283° (WNW) 00:25:32 435.000
AISAT 25 Jul 00:18:37 00:22:45 44° 72° (ENE) 00:26:56 437.250
AO-85 25 Jul 00:19:54 00:24:09 48° 55° (NE) 00:28:04 145.980
DX 1 25 Jul 00:28:12 00:32:12 39° 72° (ENE) 00:36:15 434.975-435.025
UNISAT 6 25 Jul 00:31:54 00:36:24 49° 287° (WNW) 00:40:47 437.425
Cosmos 2491 25 Jul 00:39:25 00:46:30 27° 290° (WNW) 00:53:38 435.465 / 435.565
NANOSAT C BR1 25 Jul 00:41:52 00:45:35 28° 97° (E) 00:49:16 145.865
ESTCUBE 1 25 Jul 00:41:54 00:46:21 60° 259° (W) 00:50:48 437.505/2401.250
UKube-1 25 Jul 00:46:55 00:51:04 50° 73° (ENE) 00:55:15 .
DUCHIFAT 1 25 Jul 00:47:27 00:51:14 30° 97° (E) 00:55:00 145.980
Cosmos 2504 25 Jul 00:51:11 00:58:10 33° 275° (W) 01:04:44 435.465 / 435.565
ISS 25 Jul 00:51:50 00:53:41 14° 337° (NNW) 00:55:33 145.825
JAS-2 25 Jul 00:56:41 00:59:23 14° 93° (E) 01:02:11 435.910
TISAT 1 25 Jul 00:58:23 00:59:48 12° 64° (ENE) 01:01:14 437.305
QB50P1 25 Jul 01:02:17 01:06:30 52° 100° (E) 01:10:40 145.935-145.965
PHONESAT 2.4 25 Jul 01:03:49 01:05:56 17° 213° (SSW) 01:08:02 2401.200-2431.200
POPSAT HIP 1 25 Jul 01:08:26 01:12:42 61° 101° (E) 01:16:56 437.405
VELOX 1 25 Jul 01:10:21 01:14:35 48° 260° (W) 01:18:51 145.980
ANTELSAT 25 Jul 01:11:24 01:14:46 20° 293° (WNW) 01:18:05 437.575/2403.000
BUGSAT 1 25 Jul 01:13:31 01:17:07 26° 96° (E) 01:20:41 437.445
CUBEBUG 1 25 Jul 01:19:10 01:23:03 33° 263° (W) 01:26:58 437.445
AIST 1 25 Jul 01:20:16 01:24:03 28° 77° (ENE) 01:27:49
SPROUT 25 Jul 01:25:29 01:29:44 74° 259° (WSW) 01:34:02 437.525
QB50P2 25 Jul 01:28:40 01:32:57 70° 284° (WNW) 01:37:12 145.880/145.840
50 SAT 25 Jul 01:28:49 01:31:42 22° 264° (W) 01:34:37 437.505
POLYITAN 1 25 Jul 01:31:19 01:35:36 68° 285° (WNW) 01:39:51 437.675
AISAT 25 Jul 01:57:00 01:59:26 15° 267° (W) 02:01:52 437.250
ITUPSAT 1 25 Jul 01:59:57 02:01:43 12° 62° (ENE) 02:03:29 437.325
AO-85 25 Jul 02:02:09 02:04:00 13° 253° (WSW) 02:05:47 145.980
DX 1 25 Jul 02:05:51 02:08:32 16° 266° (W) 02:11:14 434.975-435.025
NANOSAT C BR1 25 Jul 02:17:50 02:21:08 22° 291° (WNW) 02:24:25 145.865
DUCHIFAT 1 25 Jul 02:23:34 02:26:43 20° 292° (WNW) 02:29:52 145.980
UKube-1 25 Jul 02:25:36 02:27:22 12° 268° (W) 02:29:10 .
TISAT 1 25 Jul 02:30:49 02:34:56 56° 259° (W) 02:39:05 437.305
JAS-2 25 Jul 02:39:37 02:44:49 63° 286° (WNW) 02:50:25 435.910
QB50P1 25 Jul 02:39:54 02:41:47 13° 295° (WNW) 02:43:40 145.935-145.965
POPSAT HIP 1 25 Jul 02:46:41 02:47:55 11° 296° (WNW) 02:49:09 437.405
BUGSAT 1 25 Jul 02:48:57 02:52:20 24° 291° (WNW) 02:55:44 437.445
SWISSCUBE 25 Jul 02:51:19 02:55:52 46° 72° (ENE) 03:00:27 437.505
Oscar 19 25 Jul 02:54:46 02:59:49 53° 100° (E) 03:04:52 437.125/150
AIST 1 25 Jul 02:58:15 03:01:26 20° 272° (W) 03:04:37
BEESAT 25 Jul 03:12:46 03:17:32 70° 75° (ENE) 03:22:18 436.000
GONETS M04 25 Jul 03:25:26 03:33:56 50° 77° (ENE) 03:42:25
ITUPSAT 1 25 Jul 03:34:07 03:38:55 72° 258° (WSW) 03:43:44 437.325
Gurwin Techsat 1B 25 Jul 03:54:00 03:59:21 86° 103° (ESE) 04:04:41 435.225
BEESAT 3 25 Jul 03:57:03 03:58:38 12° 45° (NE) 04:00:13 437.485
Cosmos 2499 25 Jul 03:57:25 04:05:07 54° 78° (ENE) 04:12:14 435.465 / 435.565
KKS-1 25 Jul 04:01:49 04:05:23 24° 69° (ENE) 04:08:59 437.445
ISS 25 Jul 04:08:01 04:09:04 11° 18° (NNE) 04:10:08 145.825
MOZHAYETS 4 25 Jul 04:16:52 04:21:08 37° 71° (ENE) 04:25:24
ITAMSAT 1 25 Jul 04:23:27 04:28:31 52° 100° (E) 04:33:33 435.822/435.867
SWISSCUBE 25 Jul 04:30:49 04:33:52 17° 267° (W) 04:36:55 437.505
Oscar 19 25 Jul 04:35:18 04:38:42 18° 296° (WNW) 04:42:04 437.125/150
JUGNU 25 Jul 04:45:08 04:47:41 13° 175° (S) 04:50:13 437.505
STARS 25 Jul 04:46:56 04:50:58 37° 71° (ENE) 04:55:02 437.465
BEESAT 25 Jul 04:54:47 04:55:45 11° 269° (W) 04:56:43 436.000
AO-7 25 Jul 05:02:28 05:10:32 49° 102° (ESE) 05:18:28 29.400- 29.500
GONETS M04 25 Jul 05:22:50 05:30:21 33° 275° (W) 05:37:54
DANDE 25 Jul 05:23:01 05:29:06 51° 97° (E) 05:33:41 436.750
CUSAT 1 25 Jul 05:25:42 05:30:17 52° 279° (W) 05:33:48 437.405
CUBESAT XI-V 25 Jul 05:29:54 05:33:44 26° 69° (ENE) 05:37:34 437.345
PCSat 25 Jul 05:31:43 05:36:34 32° 54° (NE) 05:41:23 145.827
BEESAT 3 25 Jul 05:32:47 05:36:44 67° 242° (WSW) 05:40:38 437.485
BEESAT 2 25 Jul 05:33:47 05:37:45 62° 57° (ENE) 05:41:42 435.950
Gurwin Techsat 1B 25 Jul 05:36:46 05:38:31 12° 300° (WNW) 05:40:17 435.225
KKS-1 25 Jul 05:38:03 05:41:49 27° 263° (W) 05:45:38 437.445
ISS 25 Jul 05:42:57 05:46:08 49° 37° (NE) 05:49:18 145.825
Cosmos 2499 25 Jul 05:51:33 05:57:35 25° 277° (W) 06:03:19 435.465 / 435.565
MOZHAYETS 4 25 Jul 05:55:05 05:58:23 19° 266° (W) 06:01:42
ITAMSAT 1 25 Jul 06:04:05 06:07:32 18° 296° (WNW) 06:10:59 435.822/435.867
STARS 25 Jul 06:24:31 06:27:26 17° 266° (W) 06:30:22 437.465
BRITE-PL 25 Jul 06:25:36 06:28:02 14° 93° (E) 06:30:34 437.365/2234.400
JUGNU 25 Jul 06:33:27 06:35:50 12° 186° (S) 06:38:13 437.505
RS-15 25 Jul 06:33:43 06:41:56 24° 100° (E) 06:50:23 29.354- 29.394
HORYU 2 25 Jul 06:54:20 06:58:49 77° 283° (WNW) 07:03:16 437.375
AO-7 25 Jul 06:55:38 07:03:00 36° 299° (WNW) 07:10:20 29.400- 29.500
SRMSAT 25 Jul 06:57:16 06:59:42 13° 175° (S) 07:02:08 437.500
Cubesat XI-IV 25 Jul 07:00:20 07:03:56 18° 93° (E) 07:07:29 437.490
CUBESAT XI-V 25 Jul 07:07:05 07:11:00 27° 264° (W) 07:14:56 437.345
DANDE 25 Jul 07:08:06 07:11:44 17° 284° (WNW) 07:14:51 436.750
AIST 2 25 Jul 07:13:55 07:17:45 34° 54° (NE) 07:21:35 435.215
PCSat 25 Jul 07:15:06 07:19:54 33° 251° (WSW) 07:24:41 145.827
O/OREOS (USA 219) 25 Jul 07:16:29 07:20:05 23° 60° (ENE) 07:23:42 437.305
ISS 25 Jul 07:20:26 07:22:15 14° 231° (SW) 07:24:03 145.825
CUTE-I 25 Jul 07:23:55 07:28:37 31° 97° (E) 07:33:17 437.470
STRAND 1 25 Jul 07:37:08 07:41:51 38° 70° (ENE) 07:46:35 437.568
GOMX 1 25 Jul 07:38:35 07:43:15 37° 98° (E) 07:48:09 467.674
NOAA 18 25 Jul 07:39:21 07:44:37 43° 99° (E) 07:49:50 137.9125
DOVE 4 25 Jul 07:44:36 07:48:22 20° 93° (E) 07:52:11 437.250
NOAA 15 25 Jul 07:51:36 07:56:53 78° 103° (ESE) 08:02:09 137.62
BRITE-PL 25 Jul 08:02:01 08:06:44 59° 285° (WNW) 08:11:48 437.365/2234.400
LilacSat-2 25 Jul 08:12:30 08:16:21 68° 284° (WNW) 08:20:10 437.200
CINEMA 3 25 Jul 08:15:53 08:17:10 11° 89° (E) 08:18:27 145.822/145.860
CANX-2 25 Jul 08:36:17 08:38:26 14° 92° (E) 08:40:34 2200.000
Cubesat XI-IV 25 Jul 08:39:05 08:44:16 51° 288° (WNW) 08:49:24 437.490
RS-15 25 Jul 08:41:20 08:52:46 84° 301° (WNW) 09:04:55 29.354- 29.394
SRMSAT 25 Jul 08:45:32 08:48:00 13° 185° (S) 08:50:27 437.500
CUTE 1.7 + AOD 2 25 Jul 08:49:38 08:52:25 17° 93° (E) 08:55:11 437.475
AIST 2 25 Jul 08:52:59 08:55:59 19° 249° (WSW) 08:58:59 435.215
Cosmos 2491 25 Jul 08:54:04 09:01:10 27° 70° (ENE) 09:08:13 435.465 / 435.565
O/OREOS (USA 219) 25 Jul 08:55:30 08:59:29 31° 256° (WSW) 09:03:30 437.305
SO-50 25 Jul 08:57:22 09:01:39 31° 113° (ESE) 09:05:57 436.795
HO-68 25 Jul 09:02:06 09:08:32 34° 97° (E) 09:14:54 435.675
CUTE-I 25 Jul 09:03:58 09:08:34 30° 292° (WNW) 09:13:09 437.470
STRAND 1 25 Jul 09:17:01 09:21:05 23° 265° (W) 09:25:10 437.568
GOMX 1 25 Jul 09:17:05 09:21:07 25° 291° (WNW) 09:25:18 467.674
NOAA 18 25 Jul 09:20:37 09:24:58 24° 295° (WNW) 09:29:17 137.9125
DOVE 4 25 Jul 09:21:17 09:26:09 45° 287° (WNW) 09:31:09 437.250
PRISM 25 Jul 09:27:22 09:31:24 67° 75° (ENE) 09:35:27 437.425
SEEDS 25 Jul 09:32:13 09:36:06 37° 98° (E) 09:39:58 437.485
NOAA 15 25 Jul 09:33:46 09:35:57 13° 299° (WNW) 09:38:09 137.62
CUBEBUG 2 25 Jul 09:36:37 09:40:20 23° 94° (E) 09:43:58 437.445
COMPASS 1 25 Jul 09:48:20 09:52:13 39° 98° (E) 09:56:05 437.405
CINEMA 3 25 Jul 09:49:44 09:54:46 75° 284° (WNW) 09:59:45 145.822/145.860
UNISAT 6 25 Jul 09:55:19 09:56:35 11° 62° (ENE) 09:57:51 437.425
CANX-2 25 Jul 10:10:30 10:14:29 42° 287° (WNW) 10:18:27 2200.000
Oscar 11 25 Jul 10:11:30 10:14:54 22° 95° (E) 10:18:16 145.826/435.025
AAUSAT CUBESAT 2 25 Jul 10:18:48 10:22:55 75° 102° (ESE) 10:27:00 437.432
YUBILEINY 25 Jul 10:20:25 10:28:28 43° 87° (E) 10:36:34 435.215
CUTE 1.7 + AOD 2 25 Jul 10:24:32 10:28:21 34° 288° (WNW) 10:32:08 437.475
M-CUBED/EXP-1 PRIME 25 Jul 10:29:48 10:31:12 11° 95° (E) 10:32:34 437.505
ANTELSAT 25 Jul 10:30:57 10:34:46 27° 69° (ENE) 10:38:40 437.575/2403.000
SO-50 25 Jul 10:37:47 10:42:06 30° 309° (NW) 10:46:24 436.795
HO-68 25 Jul 10:49:35 10:56:16 43° 293° (WNW) 11:02:54 435.675
Cosmos 2491 25 Jul 10:49:57 10:58:31 62° 269° (W) 11:07:07 435.465 / 435.565
UWE-3 25 Jul 10:55:02 10:59:40 73° 283° (WNW) 11:04:09 435.000/436.395/437.385
AUBIESAT-1 25 Jul 10:56:16 10:59:29 18° 98° (E) 11:02:41 437.475
RS-15 25 Jul 10:57:42 11:07:20 28° 327° (NNW) 11:17:24 29.354- 29.394
HUMSAT D 25 Jul 11:00:30 11:03:01 15° 93° (E) 11:05:29 437.325/437.525
ZACube-1 25 Jul 11:00:45 11:05:18 84° 105° (ESE) 11:09:42 437.345
DELFI C3 25 Jul 11:00:46 11:04:21 33° 98° (E) 11:07:55 145.870
FUNcube-1 25 Jul 11:01:06 11:05:37 79° 102° (ESE) 11:10:00 145.935
SEEDS 25 Jul 11:08:56 11:11:29 16° 293° (WNW) 11:14:01 437.485
TIGRISAT 25 Jul 11:12:25 11:16:58 71° 76° (ENE) 11:21:38 435.000
CUBEBUG 2 25 Jul 11:12:46 11:16:58 32° 290° (WNW) 11:21:04 437.445
COMPASS 1 25 Jul 11:25:04 11:27:25 15° 293° (WNW) 11:29:46 437.405
UNISAT 6 25 Jul 11:28:02 11:32:36 73° 259° (W) 11:37:18 437.425
Cosmos 2504 25 Jul 11:31:42 11:39:46 42° 87° (E) 11:47:53 435.465 / 435.565
NANOSAT C BR1 25 Jul 11:32:55 11:35:40 17° 67° (ENE) 11:38:26 145.865
DUCHIFAT 1 25 Jul 11:38:09 11:41:02 18° 67° (ENE) 11:43:56 145.980
Oscar 11 25 Jul 11:47:19 11:50:59 28° 290° (WNW) 11:54:38 145.826/435.025
QB50P1 25 Jul 11:52:55 11:56:38 30° 70° (ENE) 12:00:21 145.935-145.965
POPSAT HIP 1 25 Jul 11:58:59 12:02:50 34° 71° (ENE) 12:06:42 437.405
M-CUBED/EXP-1 PRIME 25 Jul 12:01:22 12:06:03 72° 289° (WNW) 12:10:44 437.505
BUGSAT 1 25 Jul 12:02:37 12:04:50 14° 66° (ENE) 12:07:03 437.445
ANTELSAT 25 Jul 12:07:27 12:11:22 27° 264° (W) 12:15:22 437.575/2403.000
YUBILEINY 25 Jul 12:17:11 12:25:13 39° 286° (WNW) 12:33:21 435.215
QB50P2 25 Jul 12:18:56 12:23:08 66° 75° (ENE) 12:27:23 145.880/145.840
POLYITAN 1 25 Jul 12:21:34 12:25:46 67° 76° (ENE) 12:30:02 437.675
AUBIESAT-1 25 Jul 12:29:39 12:34:03 43° 292° (WNW) 12:38:25 437.475
HUMSAT D 25 Jul 12:34:53 12:38:46 37° 288° (WNW) 12:42:35 437.325/437.525
DELFI C3 25 Jul 12:36:30 12:38:54 16° 292° (WNW) 12:41:19 145.870
ESTCUBE 1 25 Jul 12:36:30 12:40:32 32° 97° (E) 12:44:32 437.505/2401.250
JAS-2 25 Jul 12:49:42 12:55:32 43° 71° (ENE) 13:00:47 435.910
50 SAT 25 Jul 12:58:43 13:01:56 30° 98° (E) 13:05:07 437.505
VELOX 1 25 Jul 13:02:19 13:06:23 34° 98° (E) 13:10:26 145.980
NANOSAT C BR1 25 Jul 13:07:11 13:11:05 36° 262° (W) 13:15:02 145.865
CUBEBUG 1 25 Jul 13:09:03 13:13:19 49° 100° (E) 13:17:35 437.445
DUCHIFAT 1 25 Jul 13:12:37 13:16:27 34° 263° (W) 13:20:19 145.980
SPROUT 25 Jul 13:14:02 13:17:21 21° 95° (E) 13:20:39 437.525
RS-15 25 Jul 13:18:42 13:25:57 17° 3° (N) 13:33:19 29.354- 29.394
Cosmos 2504 25 Jul 13:24:52 13:33:03 42° 285° (WNW) 13:41:21 435.465 / 435.565
QB50P1 25 Jul 13:29:16 13:32:24 20° 266° (W) 13:35:34 145.935-145.965
POPSAT HIP 1 25 Jul 13:35:51 13:38:41 17° 266° (W) 13:41:33 437.405
BUGSAT 1 25 Jul 13:35:59 13:39:49 41° 261° (W) 13:43:43 437.445
Gurwin Techsat 1B 25 Jul 13:36:36 13:39:08 14° 62° (ENE) 13:41:40 435.225
AISAT 25 Jul 13:46:38 13:51:05 68° 285° (WNW) 13:55:30 437.250
AIST 1 25 Jul 13:48:23 13:51:18 18° 87° (E) 13:54:13
DX 1 25 Jul 13:53:51 13:58:15 83° 283° (WNW) 14:02:37 434.975-435.025
Oscar 19 25 Jul 14:09:37 14:14:38 63° 74° (ENE) 14:19:43 437.125/150
UKube-1 25 Jul 14:11:36 14:15:54 66° 286° (WNW) 14:20:11 .
ESTCUBE 1 25 Jul 14:13:43 14:17:07 22° 292° (WNW) 14:20:30 437.505/2401.250
AO-7 25 Jul 14:13:51 14:16:10 11° 46° (NE) 14:18:28 29.400- 29.500
TISAT 1 25 Jul 14:17:01 14:20:32 25° 96° (E) 14:24:01 437.305
AO-85 25 Jul 14:31:23 14:36:07 31° 112° (ESE) 14:40:43 145.980
50 SAT 25 Jul 14:33:20 14:35:17 14° 292° (WNW) 14:37:14 437.505
JAS-2 25 Jul 14:35:42 14:40:40 24° 264° (W) 14:45:15 435.910
VELOX 1 25 Jul 14:39:23 14:42:35 20° 293° (WNW) 14:45:47 145.980
CUBEBUG 1 25 Jul 14:46:50 14:49:10 14° 295° (WNW) 14:51:30 437.445
SPROUT 25 Jul 14:49:32 14:53:16 29° 290° (WNW) 14:57:00 437.525
SWISSCUBE 25 Jul 14:55:09 14:57:26 13° 92° (E) 14:59:43 437.505
Gurwin Techsat 1B 25 Jul 15:13:06 15:18:24 74° 257° (WSW) 15:23:45 435.225
BEESAT 25 Jul 15:15:43 15:19:15 20° 94° (E) 15:22:45 436.000
AIST 1 25 Jul 15:24:54 15:28:38 30° 283° (WNW) 15:32:24
ITUPSAT 1 25 Jul 15:36:51 15:41:09 33° 97° (E) 15:45:26 437.325
ITAMSAT 1 25 Jul 15:39:18 15:44:28 66° 74° (ENE) 15:49:40 435.822/435.867
Oscar 19 25 Jul 15:51:56 15:54:22 13° 269° (W) 15:56:48 437.125/150
